Retour au catalogue

ATLAS 5 CENTAUR DEB

ActifHEO
NORAD 46638·DEBRIS·🇺🇸 United States

Lancé Sep 17, 2014 depuis Cape Canaveral Space Force Station

Loading…

Prochains Passages (prochaines 24 heures)

TLE

FraisSource: Space-Track

Époque: Sep 13, 2026, 12:06 UTC

1 46638U 14055CN  26256.50430256 -.00000108  00000-0  00000+0 0  9997
2 46638  21.1887  85.2163 5180017 275.5947  30.0512  1.92352095 41712

Suivez ATLAS 5 CENTAUR DEB en temps réel avec AllMySat

Download on the App Store